Location: Hermaringen
(48.5952°N, 10.2585°E)
Time: 14:16:26
(UTC+00:00)

Vanguard 3 - Pass Details

Date: 19 February 2026
Orbit: 507 x 3205 km, 33.3° (Epoch: 5 March)

Event Time Altitude Azimuth Distance (km) Brightness Sun altitude
Rises 18:51:03 0° 254° (WSW) 3,967 11.8 -21.2°
Reaches altitude 10° 18:56:24 10° 223° (SW) 2,414 10.0 -22.1°
Maximum altitude 18:57:58 11° 206° (SSW) 2,177 9.5 -22.3°
Drops below altitude 10° 18:59:23 10° 188° (S) 2,127 9.3 -22.6°
Enters shadow 19:00:13 - 178° (S) 2,178 9.2 -22.7°
